Location: Unspecified
(0.0000°N, 0.0000°E)
Time: 00:17:18
(UTC+00:00)

COSMOS 2452 - Pass Details

Date: 19 May 2026
Orbit: 1481 x 1507 km, 82.5° (Epoch: 10 June)

Event Time Altitude Azimuth Distance (km) Brightness Sun altitude
Rises 01:58:33 0° 8° (N) 4,597 ? -54.2°
Reaches altitude 10° 02:01:33 10° 14° (NNE) 3,616 ? -53.6°
Enters shadow 02:04:03 21° 21° (NNE) 2,848 ? -53.0°
